207  
ASUS41 KALY 200510  
RWRALY  
 
NEW YORK STATE HOURLY WEATHER ROUNDUP  
NATIONAL WEATHER SERVICE ALBANY NY  
1200 AM EST MON NOV 20 2017  
 
NOTE: "FAIR" INDICATES FEW OR NO CLOUDS BELOW 12,000 FEET WITH NO  
SIGNIFICANT WEATHER AND/OR NO S TO VISIBILITY
.  
 
NYZ032-033-038>043-046>054-057>066-NYZ062>081-082-084-200600-  
EAST  
 
 
CITY SKY/WX TMP DP RH WIND PRES REMARKS
 
ALBANY FLURRIES 34 26 72 W14 29.73R WCI 25  
GLENS FALLS CLEAR 32 20 61 W3 29.68R  
POUGHKEEPSIE PTCLDY 37 26 64 SW9 29.75R WCI 30  
NEWBURGH PTCLDY 36 28 75 W17G23 29.76 WCI 25  
MONTGOMERY PTCLDY 37 25 61 VRB7G18 29.76R WCI 32  
WHITE PLAINS PTCLDY 38 28 67 W7 29.72F WCI 33  
ISLIP MOCLDY 41 29 62 W13G22 29.76R  
NEW YORK CITY CLOUDY 42 31 64 W15G23 29.79R  
CENTRAL PARK CLOUDY 40 29 64 W13G20 29.82R WCI 32  

 
 
NYZ005>009-017-018-044>046-055-056-200600-  
CENTRAL  
 
 
CITY SKY/WX TMP DP RH WIND PRES REMARKS
 
FULTON CLOUDY 33 20 58 NW26G37 29.79R WCI 20  
SYRACUSE LGT SNOW 30 26 85 W20G25 29.80R FOG WCI 17  
ROME LGT SNOW 30 29 96 W14 29.77R FOG WCI 19  
ELMIRA CLOUDY 34 21 59 W16G26 29.83R WCI 24  
BINGHAMTON CLOUDY 29 20 69 NW16G22 29.76R WCI 17  
MONTICELLO CLEAR 30 23 75 NW14G22 29.75R WCI 19  

 
 
NYZ026>034-041>043-087-200600-  
NORTH  
 
 
CITY SKY/WX TMP DP RH WIND PRES REMARKS
 
WATERTOWN LGT SNOW 29 24 82 W24 29.77R WCI 15  
FORT DRUM NOT AVBL  
OGDENSBURG MOCLDY 29 25 83 W8 29.73R WCI 21  
MASSENA CLOUDY 27 22 81 W13 29.72R WCI 16  
SARANAC LAKE LGT SNOW 22 21 96 CALM 29.61R FOG  
PLATTSBURGH CLOUDY 30 18 60 CALM 29.66R  

 
 
NYZ001>004-010>016-019>021-085-200600-  
WEST  
 
 
CITY SKY/WX TMP DP RH WIND PRES REMARKS
 
NIAGARA FALLS CLOUDY 32 25 75 W12 29.87R WCI 23  
BUFFALO FLURRIES 31 24 75 W18G26 29.87R WCI 19  
DUNKIRK LGT SNOW 33 23 66 W16G32 29.91R WCI 23  
JAMESTOWN LGT SNOW 27 25 93 NW14 29.87R FOG WCI 15  
WELLSVILLE LGT SNOW 28 23 81 W8 29.81R WCI 20  
ROCHESTER MOCLDY 31 23 72 W12 29.84R WCI 22  
PENN YAN CLOUDY 31 20 63 VRB7 29.82R WCI 24  

 
 
KEY  
WCI = WIND CHILL INDEX  
VSB = VISIBILITY  
HX = HEAT INDEX  

 
 
 
CLICK HERE TO GO TO PREVIOUS BULLETINS.

The Nexlab NY Page
The Nexlab VT Page
The Nexlab MA Page
The Nexlab CT Page Main Text Page